Regional Weather Roundup
Issued by NWS

Home | Current Version | Previous Version | Text Only | Print | Product List | Glossary Off
Versions: 1 2 3 4 5 6 7 8 9 10 11 12 13 14 15 16 17 18 19 20 21 22 23 24 25 26 27 28 29 30 31 32 33 34 35 36 37 38 39 40 41 42 43 44 45 46 47 48 49 50

638
ASUS44 KJAN 010810
RWRMS

MISSISSIPPI HOURLY WEATHER ROUNDUP
NATIONAL WEATHER SERVICE JACKSON MS
200 AM CST SUN MAR 01 2015

NOTE: "FAIR: INDICATES FEW OR NO CLOUDS BELOW 12,000 FEET WITH NO
SIGNIFICANT WEATHER AND/OR OBSTRUCTIONS TO VISIBILITY.

MSZ001>002-007>008-010>013-018>021-025>028-034>036-010900-
NORTHWEST MISSISSIPPI

CITY           SKY/WX    TMP DP  RH WIND       PRES   REMARKS
CLARKSDALE     MOCLDY    36  32  87 N9        30.35F WCI  29
CLEVELAND      PTSUNNY   37  32  82 NE8       30.32F WCI  31
GREENWOOD        N/A    N/A N/A N/A MISG      30.32F
GREENVILLE     MOCLDY    39  33  79 NE9       30.31F WCI  33
OLIVE BRANCH   MOCLDY    34  28  80 NE6       30.35S WCI  29
OXFORD         FAIR      39  32  75 E3        30.34F
TUNICA         CLOUDY    34  30  86 N9        30.36F WCI  26
$$

MSZ003>006-009-014>017-022>024-029>033-037>039-010900-
NORTHEAST MISSISSIPPI

CITY           SKY/WX    TMP DP  RH WIND       PRES   REMARKS
COLUMBUS AFB   CLEAR     50  45  83 SE15      30.31F
CORINTH        CLOUDY    39  34  81 CALM      30.34R
GOLDN TRIANGLE CLEAR     52  45  76 SE12      30.32F
STARKVILLE     FAIR      48  45  87 S9        30.32F
TUPELO         MOCLDY    43  35  73 N3        30.35R
$$

MSZ040-058-010900-
CENTRAL MISSISSIPPI

CITY           SKY/WX    TMP DP  RH WIND       PRES   REMARKS
JACKSON INTL   PTCLDY    49  44  83 S6        30.32S
JACKSON HAWKNS MOCLDY    49  43  80 SE7       30.31S
MERIDIAN KEY   CLOUDY    52  47  83 SE8G16    30.34F
MERIDIAN NAS   CLOUDY    52  47  83 SE12G20   30.34F
VICKSBURG      CLOUDY    42  38  85 CALM      30.31S
$$

MSZ059>079-010900-
SOUTH MISSISSIPPI

CITY           SKY/WX    TMP DP  RH WIND       PRES   REMARKS
BROOKHAVEN       N/A     52  50  93 SE6       30.31F
HATTIESBURG    CLOUDY    54  50  86 E5        30.33F
MCCOMB         MOCLDY    52  50  93 SE8       30.30F
NATCHEZ        CLOUDY    55  46  71 SE12      30.28F
PINE BELT      CLOUDY    54  46  76 SE7       30.34S
$$

MSZ080>082-010900-
COASTAL MISSISSIPPI

CITY           SKY/WX    TMP DP  RH WIND       PRES   REMARKS
BILOXI         CLOUDY    55  53  93 E10       30.33F
PASCAGOULA     CLOUDY    53  51  93 E6        30.36F FOG
GULFPORT       CLOUDY    55  51  86 E13       30.33F
$$



USA.gov is the U.S. government's official web portal to all federal, state and local government web resources and services.